Zurück zum Katalog

STARLINK-2470

AktivKommunikationVLEO
NORAD 48334·PAYLOAD·🇺🇸 United States

Gestartet Apr 29, 2021 von Cape Canaveral Space Force Station

Loading…

Nächste Überflüge (nächste 24 Stunden)

TLE

AktuellSource: CelesTrak SupGP

Epoche: Sep 14, 2026, 22:00 UTC

1 48334C 21036BL  26257.91715278  .00027372  00000+0  88015-3 0  2578
2 48334  53.1579 300.3998 0001034  85.9171 198.7571 15.31691229    13

Verfolge STARLINK-2470 in Echtzeit mit AllMySat

Download on the App Store